Time,TemperatureF,DewpointF,PressureIn,WindDirection,WindDirectionDegrees,WindSpeedMPH,WindSpeedGustMPH,Humidity,HourlyPrecipIn,Conditions,Clouds,dailyrainin,SoftwareType,DateUTC
2013-04-23 00:03:00,42.0,29.0,30.22,North,355,0.0,10.0,60,0.00,,,0.00,,2013-04-23 04:03:00,
2013-04-23 00:12:00,42.0,29.0,30.22,North,355,0.0,10.0,60,0.00,,,0.00,,2013-04-23 04:12:00,
2013-04-23 00:23:00,41.0,29.0,30.21,NW,313,0.0,6.0,63,0.00,,,0.00,,2013-04-23 04:23:00,
2013-04-23 00:33:00,41.0,29.0,30.22,WSW,252,0.0,2.0,62,0.00,,,0.00,,2013-04-23 04:33:00,
2013-04-23 00:43:00,41.0,29.0,30.22,WSW,252,0.0,2.0,62,0.00,,,0.00,,2013-04-23 04:43:00,
2013-04-23 00:53:00,40.0,28.0,30.22,WNW,299,0.0,1.0,61,0.00,,,0.00,,2013-04-23 04:53:00,
2013-04-23 01:02:00,40.0,27.0,30.21,ENE,59,1.0,6.0,60,0.00,,,0.00,,2013-04-23 05:02:00,
2013-04-23 01:12:00,40.0,27.0,30.21,ENE,59,1.0,6.0,60,0.00,,,0.00,,2013-04-23 05:12:00,
2013-04-23 01:22:00,40.0,27.0,30.21,WNW,286,0.0,4.0,60,0.00,,,0.00,,2013-04-23 05:22:00,
2013-04-23 01:32:00,40.0,26.0,30.21,NNW,342,1.0,6.0,58,0.00,,,0.00,,2013-04-23 05:32:00,
2013-04-23 01:42:00,40.0,26.0,30.21,NNW,342,1.0,6.0,58,0.00,,,0.00,,2013-04-23 05:42:00,
2013-04-23 01:52:00,40.0,27.0,30.21,NNW,339,1.0,7.0,59,0.00,,,0.00,,2013-04-23 05:52:00,
2013-04-23 02:02:00,40.0,26.0,30.20,NNW,334,1.0,5.0,58,0.00,,,0.00,,2013-04-23 06:02:00,
2013-04-23 02:12:00,40.0,26.0,30.20,NNW,334,1.0,5.0,58,0.00,,,0.00,,2013-04-23 06:12:00,
2013-04-23 02:21:00,39.0,26.0,30.20,NW,315,0.0,5.0,60,0.00,,,0.00,,2013-04-23 06:21:00,
2013-04-23 02:33:00,39.0,26.0,30.19,SSW,198,0.0,1.0,59,0.00,,,0.00,,2013-04-23 06:33:00,
2013-04-23 02:42:00,39.0,26.0,30.19,SSW,198,0.0,1.0,59,0.00,,,0.00,,2013-04-23 06:42:00,
2013-04-23 02:52:00,39.0,26.0,30.19,SSW,198,0.0,1.0,59,0.00,,,0.00,,2013-04-23 06:52:00,
2013-04-23 03:02:00,39.0,26.0,30.19,SSW,198,0.0,1.0,59,0.00,,,0.00,,2013-04-23 07:02:00,
2013-04-23 03:11:00,39.0,26.0,30.19,SSW,198,0.0,1.0,59,0.00,,,0.00,,2013-04-23 07:11:00,
2013-04-23 07:03:00,37.0,31.0,30.15,NE,36,6.0,8.0,79,0.00,,,0.00,,2013-04-23 11:03:00,
2013-04-23 07:12:00,37.0,31.0,30.15,NE,36,6.0,8.0,79,0.00,,,0.00,,2013-04-23 11:12:00,
2013-04-23 07:22:00,37.0,31.0,30.15,NE,39,4.0,9.0,80,0.00,,,0.00,,2013-04-23 11:22:00,
2013-04-23 07:32:00,38.0,32.0,30.15,North,355,2.0,9.0,79,0.00,,,0.00,,2013-04-23 11:32:00,
2013-04-23 07:42:00,38.0,32.0,30.15,North,355,2.0,9.0,79,0.00,,,0.00,,2013-04-23 11:42:00,
2013-04-23 07:53:00,38.0,32.0,30.14,NNE,25,5.0,9.0,78,0.00,,,0.00,,2013-04-23 11:53:00,
2013-04-23 08:02:00,39.0,32.0,30.14,NNE,29,5.0,9.0,77,0.00,,,0.00,,2013-04-23 12:02:00,
2013-04-23 08:12:00,39.0,32.0,30.14,NNE,29,5.0,9.0,77,0.00,,,0.00,,2013-04-23 12:12:00,
2013-04-23 08:22:00,40.0,33.0,30.15,NE,46,4.0,11.0,76,0.00,,,0.00,,2013-04-23 12:22:00,
2013-04-23 08:32:00,41.0,33.0,30.16,NNE,30,1.0,5.0,74,0.00,,,0.00,,2013-04-23 12:32:00,
2013-04-23 08:42:00,41.0,33.0,30.16,NNE,30,1.0,5.0,74,0.00,,,0.00,,2013-04-23 12:42:00,
2013-04-23 08:52:00,43.0,35.0,30.18,NNE,33,1.0,6.0,72,0.00,,,0.00,,2013-04-23 12:52:00,
2013-04-23 09:01:00,44.0,34.0,30.19,NNE,30,0.0,4.0,69,0.00,,,0.00,,2013-04-23 13:01:00,
2013-04-23 09:11:00,44.0,34.0,30.19,NNE,30,0.0,4.0,69,0.00,,,0.00,,2013-04-23 13:11:00,
2013-04-23 09:22:00,46.0,34.0,30.19,NE,50,0.0,4.0,63,0.00,,,0.00,,2013-04-23 13:22:00,
2013-04-23 09:32:00,47.0,35.0,30.19,East,97,1.0,4.0,62,0.00,,,0.00,,2013-04-23 13:32:00,
2013-04-23 09:42:00,47.0,35.0,30.19,East,97,1.0,4.0,62,0.00,,,0.00,,2013-04-23 13:42:00,
2013-04-23 09:52:00,48.0,35.0,30.18,East,98,0.0,1.0,61,0.00,,,0.00,,2013-04-23 13:52:00,
2013-04-23 10:02:00,49.0,36.0,30.18,ENE,67,0.0,5.0,61,0.00,,,0.00,,2013-04-23 14:02:00,
2013-04-23 10:11:00,49.0,36.0,30.18,ENE,67,0.0,5.0,61,0.00,,,0.00,,2013-04-23 14:11:00,
2013-04-23 10:22:00,49.0,36.0,30.17,ESE,119,1.0,5.0,60,0.00,,,0.00,,2013-04-23 14:22:00,
2013-04-23 10:32:00,50.0,36.0,30.18,ESE,113,0.0,7.0,59,0.00,,,0.00,,2013-04-23 14:32:00,
2013-04-23 10:42:00,50.0,36.0,30.18,ESE,113,0.0,7.0,59,0.00,,,0.00,,2013-04-23 14:42:00,
2013-04-23 10:52:00,51.0,37.0,30.19,East,79,0.0,4.0,59,0.00,,,0.00,,2013-04-23 14:52:00,
2013-04-23 11:01:00,51.0,37.0,30.19,East,79,0.0,4.0,59,0.00,,,0.00,,2013-04-23 15:01:00,
2013-04-23 11:12:00,51.0,37.0,30.19,ENE,78,0.0,5.0,58,0.00,,,0.00,,2013-04-23 15:12:00,
2013-04-23 11:22:00,53.0,38.0,30.20,SE,144,0.0,5.0,56,0.00,,,0.00,,2013-04-23 15:22:00,
2013-04-23 11:32:00,53.0,38.0,30.20,South,171,0.0,5.0,56,0.00,,,0.00,,2013-04-23 15:32:00,
2013-04-23 11:42:00,53.0,38.0,30.20,South,171,0.0,5.0,56,0.00,,,0.00,,2013-04-23 15:42:00,
2013-04-23 11:53:00,54.0,38.0,30.20,ESE,108,1.0,5.0,54,0.00,,,0.00,,2013-04-23 15:53:00,
2013-04-23 12:03:00,57.0,38.0,30.19,SSE,151,1.0,4.0,49,0.00,,,0.00,,2013-04-23 16:03:00,
2013-04-23 12:12:00,57.0,38.0,30.19,SSE,151,1.0,4.0,49,0.00,,,0.00,,2013-04-23 16:12:00,
2013-04-23 12:23:00,58.0,39.0,30.19,South,178,0.0,5.0,50,0.00,,,0.00,,2013-04-23 16:23:00,
2013-04-23 12:34:00,59.0,39.0,30.19,SSW,202,1.0,4.0,47,0.00,,,0.00,,2013-04-23 16:34:00,
2013-04-23 12:43:00,59.0,39.0,30.19,SSW,202,1.0,4.0,47,0.00,,,0.00,,2013-04-23 16:43:00,
2013-04-23 12:53:00,58.0,38.0,30.19,SE,132,2.0,6.0,47,0.00,,,0.00,,2013-04-23 16:53:00,
2013-04-23 13:02:00,60.0,39.0,30.18,South,183,0.0,7.0,46,0.00,,,0.00,,2013-04-23 17:02:00,
2013-04-23 13:12:00,60.0,39.0,30.18,South,183,0.0,7.0,46,0.00,,,0.00,,2013-04-23 17:12:00,
2013-04-23 13:22:00,61.0,41.0,30.17,SE,128,1.0,10.0,48,0.00,,,0.00,,2013-04-23 17:22:00,
2013-04-23 13:32:00,61.0,38.0,30.16,SSW,201,0.0,7.0,43,0.00,,,0.00,,2013-04-23 17:32:00,
2013-04-23 13:42:00,61.0,38.0,30.16,SSW,201,0.0,7.0,43,0.00,,,0.00,,2013-04-23 17:42:00,
2013-04-23 13:53:00,61.0,40.0,30.16,South,171,3.0,9.0,45,0.00,,,0.00,,2013-04-23 17:53:00,
2013-04-23 14:02:00,64.0,41.0,30.15,ESE,115,2.0,8.0,43,0.00,,,0.00,,2013-04-23 18:02:00,
2013-04-23 14:12:00,64.0,41.0,30.15,ESE,115,2.0,8.0,43,0.00,,,0.00,,2013-04-23 18:12:00,
2013-04-23 14:22:00,64.0,41.0,30.15,East,82,3.0,8.0,43,0.00,,,0.00,,2013-04-23 18:22:00,
2013-04-23 14:32:00,63.0,39.0,30.15,SE,126,4.0,10.0,41,0.00,,,0.00,,2013-04-23 18:32:00,
2013-04-23 14:42:00,63.0,39.0,30.15,SE,126,4.0,10.0,41,0.00,,,0.00,,2013-04-23 18:42:00,
2013-04-23 14:52:00,62.0,41.0,30.15,SSE,151,3.0,6.0,46,0.00,,,0.00,,2013-04-23 18:52:00,
2013-04-23 15:02:00,65.0,40.0,30.14,SE,138,1.0,8.0,40,0.00,,,0.00,,2013-04-23 19:02:00,
2013-04-23 15:11:00,65.0,40.0,30.14,SE,138,1.0,8.0,40,0.00,,,0.00,,2013-04-23 19:11:00,
2013-04-23 15:22:00,64.0,42.0,30.14,SSW,192,2.0,9.0,44,0.00,,,0.00,,2013-04-23 19:22:00,
2013-04-23 15:32:00,64.0,42.0,30.14,SE,125,0.0,11.0,44,0.00,,,0.00,,2013-04-23 19:32:00,
2013-04-23 15:42:00,64.0,42.0,30.14,SE,125,0.0,11.0,44,0.00,,,0.00,,2013-04-23 19:42:00,
2013-04-23 15:52:00,65.0,41.0,30.14,SSW,194,2.0,13.0,42,0.00,,,0.00,,2013-04-23 19:52:00,
2013-04-23 16:02:00,64.0,40.0,30.13,South,175,4.0,10.0,42,0.00,,,0.00,,2013-04-23 20:02:00,
2013-04-23 16:11:00,64.0,40.0,30.13,South,175,4.0,10.0,42,0.00,,,0.00,,2013-04-23 20:11:00,
2013-04-23 16:22:00,63.0,41.0,30.12,SSE,156,3.0,10.0,44,0.00,,,0.00,,2013-04-23 20:22:00,
2013-04-23 16:32:00,64.0,43.0,30.12,SSE,168,2.0,8.0,46,0.00,,,0.00,,2013-04-23 20:32:00,
2013-04-23 16:42:00,64.0,43.0,30.12,SSE,168,2.0,8.0,46,0.00,,,0.00,,2013-04-23 20:42:00,
2013-04-23 16:52:00,64.0,42.0,30.12,South,184,4.0,13.0,44,0.00,,,0.00,,2013-04-23 20:52:00,
2013-04-23 17:02:00,62.0,42.0,30.11,SSE,164,4.0,11.0,47,0.00,,,0.00,,2013-04-23 21:02:00,
2013-04-23 17:12:00,62.0,42.0,30.11,SSE,164,4.0,11.0,47,0.00,,,0.00,,2013-04-23 21:12:00,
2013-04-23 17:22:00,64.0,43.0,30.11,SSE,161,4.0,11.0,47,0.00,,,0.00,,2013-04-23 21:22:00,
2013-04-23 17:33:00,64.0,43.0,30.09,SSE,166,3.0,8.0,46,0.00,,,0.00,,2013-04-23 21:33:00,
2013-04-23 17:43:00,64.0,43.0,30.09,SSE,166,3.0,8.0,46,0.00,,,0.00,,2013-04-23 21:43:00,
2013-04-23 17:53:00,61.0,41.0,30.11,South,176,6.0,9.0,48,0.00,,,0.00,,2013-04-23 21:53:00,
2013-04-23 18:03:00,58.0,40.0,30.11,South,184,6.0,11.0,52,0.00,,,0.00,,2013-04-23 22:03:00,
2013-04-23 18:12:00,58.0,40.0,30.11,South,184,6.0,11.0,52,0.00,,,0.00,,2013-04-23 22:12:00,
2013-04-23 18:23:00,58.0,41.0,30.11,South,182,5.0,10.0,54,0.00,,,0.00,,2013-04-23 22:23:00,
2013-04-23 18:33:00,57.0,41.0,30.11,South,188,4.0,9.0,56,0.00,,,0.00,,2013-04-23 22:33:00,
2013-04-23 18:42:00,57.0,41.0,30.11,South,188,4.0,9.0,56,0.00,,,0.00,,2013-04-23 22:42:00,
2013-04-23 18:52:00,57.0,42.0,30.11,South,191,6.0,10.0,58,0.00,,,0.00,,2013-04-23 22:52:00,
2013-04-23 19:03:00,56.0,42.0,30.11,SSW,198,4.0,10.0,60,0.00,,,0.00,,2013-04-23 23:03:00,
2013-04-23 19:12:00,56.0,42.0,30.11,SSW,198,4.0,10.0,60,0.00,,,0.00,,2013-04-23 23:12:00,
2013-04-23 19:22:00,56.0,43.0,30.11,South,180,3.0,7.0,61,0.00,,,0.00,,2013-04-23 23:22:00,
2013-04-23 19:32:00,56.0,43.0,30.11,SSW,201,3.0,10.0,61,0.00,,,0.00,,2013-04-23 23:32:00,
2013-04-23 19:42:00,56.0,43.0,30.11,SSW,201,3.0,10.0,61,0.00,,,0.00,,2013-04-23 23:42:00,
2013-04-23 19:52:00,55.0,43.0,30.11,South,185,2.0,8.0,63,0.00,,,0.00,,2013-04-23 23:52:00,
2013-04-23 20:02:00,55.0,43.0,30.11,SSE,166,0.0,7.0,64,0.00,,,0.00,,2013-04-24 00:02:00,
2013-04-23 20:11:00,55.0,43.0,30.11,SSE,166,0.0,7.0,64,0.00,,,0.00,,2013-04-24 00:11:00,
2013-04-23 20:22:00,54.0,43.0,30.11,South,182,5.0,8.0,65,0.00,,,0.00,,2013-04-24 00:22:00,
2013-04-23 20:32:00,53.0,42.0,30.11,SSE,152,3.0,7.0,66,0.00,,,0.00,,2013-04-24 00:32:00,
2013-04-23 20:42:00,53.0,42.0,30.11,SSE,152,3.0,7.0,66,0.00,,,0.00,,2013-04-24 00:42:00,
2013-04-23 20:52:00,53.0,42.0,30.12,SSW,200,6.0,8.0,66,0.00,,,0.00,,2013-04-24 00:52:00,
2013-04-23 21:02:00,53.0,42.0,30.12,SSW,192,4.0,9.0,66,0.00,,,0.00,,2013-04-24 01:02:00,
2013-04-23 21:11:00,53.0,42.0,30.12,SSW,192,4.0,9.0,66,0.00,,,0.00,,2013-04-24 01:11:00,
2013-04-23 21:21:00,53.0,42.0,30.12,South,179,5.0,8.0,66,0.00,,,0.00,,2013-04-24 01:21:00,
2013-04-23 21:32:00,53.0,42.0,30.13,South,190,0.0,6.0,67,0.00,,,0.00,,2013-04-24 01:32:00,
2013-04-23 21:42:00,53.0,42.0,30.13,South,190,0.0,6.0,67,0.00,,,0.00,,2013-04-24 01:42:00,
2013-04-23 21:52:00,53.0,42.0,30.13,SSW,198,7.0,9.0,67,0.00,,,0.00,,2013-04-24 01:52:00,
2013-04-23 22:02:00,52.0,42.0,30.13,SSW,196,5.0,8.0,68,0.00,,,0.00,,2013-04-24 02:02:00,
2013-04-23 22:30:00,52.0,42.0,30.13,SSW,205,6.0,8.0,68,0.00,,,0.00,,2013-04-24 02:30:00,
2013-04-23 22:40:00,52.0,42.0,30.13,SSW,205,6.0,8.0,68,0.00,,,0.00,,2013-04-24 02:40:00,
2013-04-23 22:48:00,52.0,42.0,30.13,SSW,205,6.0,8.0,68,0.00,,,0.00,,2013-04-24 02:48:00,
2013-04-23 23:01:00,52.0,42.0,30.13,SSW,205,6.0,8.0,69,0.00,,,0.00,,2013-04-24 03:01:00,
2013-04-23 23:10:00,52.0,42.0,30.13,SSW,205,4.0,7.0,69,0.00,,,0.00,,2013-04-24 03:10:00,
2013-04-23 23:18:00,52.0,42.0,30.13,SSW,205,4.0,7.0,69,0.00,,,0.00,,2013-04-24 03:18:00,
2013-04-23 23:31:00,52.0,42.0,30.13,SW,225,5.0,10.0,69,0.00,,,0.00,,2013-04-24 03:31:00,
2013-04-23 23:41:00,52.0,43.0,30.13,SSW,205,6.0,9.0,70,0.00,,,0.00,,2013-04-24 03:41:00,
2013-04-23 23:51:00,52.0,43.0,30.13,SSW,205,6.0,9.0,70,0.00,,,0.00,,2013-04-24 03:51:00,